logo
App data

Frog Climbers

Climb mountains. Beat your friends. Be a douchefrog!
Store | Hub | SteamDB | Site
Developer: TeamCrew Publisher: Dear Villagers
Genre: Indie
Languages: English
Tags: Indie (35), Local Multiplayer (18), Funny (14), Parkour (12), 4 Player Local (6)
Category: Single-player, Multi-player, PvP, Shared/Split Screen PvP, Shared/Split Screen, Full controller support, Steam Leaderboards, Remote Play on Phone, Remote Play on Tablet, Remote Play on TV, Remote Play Together
Release date: Oct 6, 2016
Price: $6.99
Old userscore: 82% Owners: 20,000 .. 50,000
Followers: 673
Peak concurrent players yesterday: 3
Playtime total: 02:17 (average) 02:20 (median)

Steam Spy is still in beta, so expect major bugs.

Owners data:

Access restricted.

This feature is only available to users with special access rights. Sorry.

If you want to proceed, you need to register or log in first and then back Steam Spy on Patreon. Look for Indie or Pro pledge.

Don't forget to use the same email as on Steam Spy!

If you've recently backed Steam Spy on Patreon, please note, that it might take around 15 minutes for your access rights to sync. In most cases you'll need to re-login on Steam Spy too.

Audience in 2 weeks:

Access restricted.

This feature is only available to users with special access rights. Sorry.

If you want to proceed, you need to register or log in first and then back Steam Spy on Patreon. Look for Indie or Pro pledge.

Don't forget to use the same email as on Steam Spy!

If you've recently backed Steam Spy on Patreon, please note, that it might take around 15 minutes for your access rights to sync. In most cases you'll need to re-login on Steam Spy too.

Peak daily concurrent players:

CCU data courtesy of SteamDB. Used with permission.

Hourly concurrent players:

Daily Twitch stats:

Hourly Twitch stats:

Followers over time

Access restricted.

This feature is only available to users with special access rights. Sorry.

If you want to proceed, you need to register or log in first and then back Steam Spy on Patreon. Look for Indie or Pro pledge.

Don't forget to use the same email as on Steam Spy!

If you've recently backed Steam Spy on Patreon, please note, that it might take around 15 minutes for your access rights to sync. In most cases you'll need to re-login on Steam Spy too.

Views for top 50 videos on YouTube for this game:

Games similar to this one:

# Game Release date
Price
Score rank
(Userscore / Metascore)
Owners
Players
Playtime (Median)
1 Lift It Jan 20, 2017 $4.99N/A (N/A)50,000 .. 100,0000%00:00 (00:00)
2 Forgotten, Not Lost - A Kinetic Novel Apr 2, 2016 $1.99N/A (N/A)20,000 .. 50,0000%00:00 (00:00)
3 Burst Mar 14, 2016 N/AN/A (N/A)20,000 .. 50,0000%00:00 (00:00)
4 Caravanserail Feb 26, 2016 $2.99N/A (N/A)0 .. 20,0000%00:00 (00:00)
5 Sophie's Curse Mar 16, 2016 $4.99N/A (N/A)50,000 .. 100,0000%00:00 (00:00)
6 Broken Dreams Feb 19, 2016 $1.99N/A (N/A)500,000 .. 1,000,0000%00:00 (00:00)
7 Goodnight Butcher Dec 18, 2015 $1.99N/A (N/A)0 .. 20,0000%00:00 (00:00)
8 SquareCells Dec 7, 2015 $2.99N/A (N/A)50,000 .. 100,0000%00:00 (00:00)
9 BAD END Nov 25, 2015 $4.99N/A (N/A)20,000 .. 50,0000%00:00 (00:00)
10 The Last NightMary - A Lenda do Cabeça de Cuia Nov 2, 2015 $3.99N/A (N/A)50,000 .. 100,0000%00:00 (00:00)
11 Love in the Glen Jun 9, 2016 $5.99N/A (N/A)20,000 .. 50,0000%00:00 (00:00)
12 Without Within 2 Nov 9, 2015 $4.99N/A (N/A)0 .. 20,0000%00:00 (00:00)
13 12 Labours of Hercules IV: Mother Nature (Platinum Edition) Dec 25, 2015 $2.99N/A (N/A)20,000 .. 50,0000%00:00 (00:00)
14 Dance Magic Feb 15, 2016 $9.99N/A (N/A)0 .. 20,0000%00:00 (00:00)
15 Collisions Jul 28, 2015 $3.99N/A (N/A)20,000 .. 50,0000%00:00 (00:00)
16 Robot vs Birds Zombies Jun 1, 2013 $0.99N/A (N/A)500,000 .. 1,000,0000%00:00 (00:00)
17 In Between Aug 21, 2015 $11.99N/A (N/A/68%)50,000 .. 100,0000%00:00 (00:00)
18 Alpha Runner Sep 2, 2015 $0.99N/A (N/A)100,000 .. 200,0000%00:00 (00:00)
19 Wanda - A Beautiful Apocalypse Jun 3, 2016 $1.99N/A (N/A)100,000 .. 200,0000%00:00 (00:00)
20 Job the Leprechaun Jul 31, 2015 $2.99N/A (N/A)20,000 .. 50,0000%00:00 (00:00)
21 Football Blitz Jan 4, 2017 N/AN/A (N/A)0 .. 20,0000%00:00 (00:00)
22 Dungeon Painter Studio Feb 26, 2017 $14.99N/A (N/A)50,000 .. 100,0000%00:00 (00:00)
23 Ninja Stealth 2 Jan 30, 2017 $0.99N/A (N/A)50,000 .. 100,0000%00:00 (00:00)
24 Griptape Backbone May 5, 2017 FreeN/A (N/A)0 .. 20,0000%00:00 (00:00)
25 Winexy Jan 13, 2017 $0.49N/A (N/A)50,000 .. 100,0000%00:00 (00:00)
26 iREC Jan 16, 2017 $2.99N/A (N/A)100,000 .. 200,0000%00:00 (00:00)
27 Neon Prism Nov 18, 2016 $10.99N/A (N/A)50,000 .. 100,0000%00:00 (00:00)
28 Kombine Oct 14, 2016 $0.99N/A (N/A)20,000 .. 50,0000%00:00 (00:00)
29 Archimedes Oct 6, 2016 $1.99N/A (N/A)20,000 .. 50,0000%00:00 (00:00)
30 Turbo Pug 3D Sep 20, 2016 $0.99N/A (N/A)200,000 .. 500,0000%00:00 (00:00)
31 Star Chronicles: Delta Quadrant Jul 7, 2015 $0.99N/A (N/A)200,000 .. 500,0000%00:00 (00:00)
32 ConflictCraft Dec 8, 2016 $1.99N/A (N/A)100,000 .. 200,0000%00:00 (00:00)
33 12 Labours of Hercules V: Kids of Hellas (Platinum Edition) Jun 17, 2016 $2.99N/A (N/A)20,000 .. 50,0000%00:00 (00:00)
34 Totally Unbalanced Jul 29, 2016 FreeN/A (N/A)50,000 .. 100,0000%00:00 (00:00)
35 Magma Tsunami Jun 1, 2016 $0.99N/A (N/A)200,000 .. 500,0000%00:00 (00:00)
36 Autumn Sep 23, 2014 $2.99N/A (N/A)100,000 .. 200,0000%00:00 (00:00)
37 King's Guard TD Jun 8, 2016 $2.99N/A (N/A)100,000 .. 200,0000%00:00 (00:00)
38 Hyposphere May 5, 2016 $2.99N/A (N/A)200,000 .. 500,0000%00:00 (00:00)
39 Reptilian Rebellion Aug 8, 2016 $1.49N/A (N/A)50,000 .. 100,0000%00:00 (00:00)
40 Tribloos 2 Jan 12, 2013 $4.99N/A (N/A)100,000 .. 200,0000%00:00 (00:00)
41 Quantum Rush Champions Dec 4, 2014 $9.99N/A (N/A)20,000 .. 50,0000%00:00 (00:00)
42 A Good Snowman Is Hard To Build Feb 25, 2015 $9.99N/A (N/A)50,000 .. 100,0000%00:00 (00:00)
43 Bloop Reloaded Feb 6, 2015 FreeN/A (N/A)100,000 .. 200,0000%00:00 (00:00)
44 GamersGoMakers Aug 8, 2014 $8.99N/A (N/A)20,000 .. 50,0000%00:00 (00:00)
45 Cute Things Dying Violently Sep 2, 2015 $2.99N/A (N/A)0 .. 20,0000%00:00 (00:00)
46 Cyto Jul 10, 2014 $3.99N/A (N/A)20,000 .. 50,0000%00:00 (00:00)
47 European Ship Simulator Nov 4, 2016 $19.99N/A (N/A)100,000 .. 200,0000%00:00 (00:00)
48 Rage Runner May 16, 2014 $4.99N/A (N/A)0 .. 20,0000%00:00 (00:00)
49 On Rusty Trails Jun 13, 2016 $12.99N/A (N/A/77%)0 .. 20,0000%00:00 (00:00)
50 Sinister City Oct 18, 2014 $0.99N/A (N/A)100,000 .. 200,0000%00:00 (00:00)
51 Paranormal State: Poison Spring Nov 26, 2013 $9.99N/A (N/A)50,000 .. 100,0000%00:00 (00:00)
52 Farm for your Life Jun 5, 2013 $9.99N/A (N/A)50,000 .. 100,0000%00:00 (00:00)
53 Girls Like Robots Feb 14, 2014 $6.99N/A (N/A)100,000 .. 200,0000%00:00 (00:00)
54 Dead Man's Draw Feb 6, 2014 $6.99N/A (N/A)50,000 .. 100,0000%00:00 (00:00)
55 Particulars Nov 19, 2014 FreeN/A (N/A/74%)0 .. 20,0000%00:00 (00:00)
56 Oozi: Earth Adventure Dec 5, 2013 $4.99N/A (N/A/66%)20,000 .. 50,0000%00:00 (00:00)
57 Governor of Poker 2 - Premium Edition Oct 11, 2010 $7.99N/A (N/A)20,000 .. 50,0000%00:00 (00:00)
58 Axel & Pixel Oct 6, 2010 $4.99N/A (N/A)20,000 .. 50,0000%00:00 (00:00)
59 Drizzlepath Mar 12, 2015 $1.99N/A (N/A)20,000 .. 50,0000%00:00 (00:00)
60 Koala Kids Jun 22, 2015 $1.99N/A (N/A)100,000 .. 200,0000%00:00 (00:00)
61 Way of Gold and Steel Aug 17, 2015 $8.99N/A (N/A)20,000 .. 50,0000%00:00 (00:00)
62 Power of Love Jul 21, 2015 $0.99N/A (N/A)20,000 .. 50,00016.67%00:06 (00:02)
63 Beat Da Beat Mar 10, 2016 $1.99N/A (N/A)20,000 .. 50,0000%00:00 (00:00)
64 Egg Returns Home May 5, 2015 FreeN/A (N/A)50,000 .. 100,0000%00:00 (00:00)
65 Cursed Sight Aug 3, 2015 $4.99N/A (N/A)0 .. 20,0000%00:00 (00:00)
66 The Reject Demon: Toko Chapter 0 — Prelude May 9, 2015 $4.99N/A (N/A)20,000 .. 50,0000%00:00 (00:00)
67 Earthtongue Apr 27, 2015 $4.99N/A (N/A)50,000 .. 100,0000%00:00 (00:00)
68 Alter World May 29, 2015 $1.99N/A (N/A)200,000 .. 500,0000%00:00 (00:00)
69 Thrillville: Off the Rails Oct 9, 2007 $9.99N/A (N/A/70%)20,000 .. 50,0000%00:00 (00:00)
70 Pester Jan 25, 2013 $0.99N/A (N/A)100,000 .. 200,0000%00:00 (00:00)
71 Racecraft Mar 4, 2016 FreeN/A (N/A)20,000 .. 50,0000%00:00 (00:00)
72 Streets of Chaos Jan 23, 2015 N/AN/A (N/A)100,000 .. 200,0000%00:00 (00:00)
73 Stay Alight Mar 2, 2015 $3.99N/A (N/A)50,000 .. 100,0000%00:00 (00:00)
74 Pixel Puzzles 2: Birds Feb 20, 2015 $4.99N/A (N/A)200,000 .. 500,0000%00:00 (00:00)
75 12 Labours of Hercules Mar 23, 2015 $2.99N/A (N/A)100,000 .. 200,0000%00:00 (00:00)
76 1931: Scheherazade at the Library of Pergamum Mar 26, 2015 $4.99N/A (N/A)0 .. 20,0000%00:00 (00:00)
77 The Jackbox Party Pack Nov 26, 2014 $24.99N/A (N/A)200,000 .. 500,0000%00:00 (00:00)

Tags over time:

Access restricted.

This feature is only available to users with special access rights. Sorry.

If you want to proceed, you need to register or log in first and then back Steam Spy on Patreon. Look for Indie or Pro pledge.

Don't forget to use the same email as on Steam Spy!

If you've recently backed Steam Spy on Patreon, please note, that it might take around 15 minutes for your access rights to sync. In most cases you'll need to re-login on Steam Spy too.

Owners of this game also own:

Access restricted.

This feature is only available to users with special access rights. Sorry.

If you want to proceed, you need to register or log in first and then back Steam Spy on Patreon. Look for Indie or Pro pledge.

Don't forget to use the same email as on Steam Spy!

If you've recently backed Steam Spy on Patreon, please note, that it might take around 15 minutes for your access rights to sync. In most cases you'll need to re-login on Steam Spy too.

Playtime distribution:

Access restricted.

This feature is only available to users with special access rights. Sorry.

If you want to proceed, you need to register or log in first and then back Steam Spy on Patreon. Look for Indie or Pro pledge.

Don't forget to use the same email as on Steam Spy!

If you've recently backed Steam Spy on Patreon, please note, that it might take around 15 minutes for your access rights to sync. In most cases you'll need to re-login on Steam Spy too.

Playtime (2 weeks):

Access restricted.

This feature is only available to users with special access rights. Sorry.

If you want to proceed, you need to register or log in first and then back Steam Spy on Patreon. Look for Indie or Pro pledge.

Don't forget to use the same email as on Steam Spy!

If you've recently backed Steam Spy on Patreon, please note, that it might take around 15 minutes for your access rights to sync. In most cases you'll need to re-login on Steam Spy too.

User reviews:

Login required.

Please register or log in to see this information.